[[{"header":{"parameterUnit":"m.s-1","parameterCategory":1,"la1":30.2991,"la2":30.254,"lo1":-89.0895,"lo2":-89.0444,"dy":0.0017,"dx":0.0017,"nx":28,"ny":28,"refTime":"2023-08-30T03:00:00:Z","depth":0,"parameterNumber":2,"parameterNumberName":"U-component_of_WINDS"},"data":[0,0,0,0,0,0,0,0,0,0,0,0,0,0,0,0,0,0,0,0,0,0,0,0,0,0,0,0,0,0,0,0,0,0,0,0,0,0,0,0,0,0,0,0,0,0,0,0,0,0,0,0,0,0,0,0,0,0,1.0904,1.0903,0,1.085,1.085,1.0849,1.0829,1.0829,1.083,1.083,1.0772,1.077,1.0768,0,0,0,0,0,0,0,0,0,0,0,0,0,1.0986,1.0984,1.0904,1.0903,1.0902,1.0851,1.085,1.0849,1.0829,1.0829,1.083,1.083,1.0772,1.077,1.0768,0,0,0,0,0,0,0,0,0,0,0,0,0,1.0943,1.0984,1.0904,1.0886,1.0884,1.0851,1.085,1.0849,1.0829,1.0829,1.083,1.083,1.0773,1.077,1.0768,1.0747,0,0,1.076,1.0759,0,0,0,0,0,0,0,0,1.0945,1.094,1.089,1.0888,1.0885,1.0847,1.0857,1.0814,1.0829,1.085,1.083,1.083,1.0796,1.0792,1.0781,1.0744,1.0741,1.076,1.0758,1.0757,1.0756,0,0,0,0,0,0,0,1.0948,1.0942,1.0883,1.0889,1.0886,1.088,1.0874,1.0849,1.0822,1.0848,1.0847,1.0841,1.0795,1.0784,1.0779,1.0741,1.076,1.0758,1.0756,1.0755,1.0683,1.0683,0,0,0,0,0,0,1.0955,1.0945,1.0884,1.0881,1.0917,1.0879,1.0872,1.0859,1.0822,1.0817,1.0841,1.084,1.0788,1.0783,1.0777,1.075,1.0757,1.0755,1.0753,1.0684,1.0683,1.0683,0,0,0,0,0,0,1.0957,1.0949,1.0886,1.0912,1.0904,1.0877,1.0862,1.0858,1.0846,1.0817,1.0811,1.0834,1.0788,1.0781,1.0755,1.0748,1.0754,1.0751,1.0684,1.0684,1.0683,1.0695,0,0,0,0,0,0,1.0959,1.095,1.0943,1.0912,1.0903,1.0865,1.0862,1.0856,1.0842,1.0841,1.0809,1.0804,1.0787,1.0759,1.0752,1.0744,1.0749,1.0685,1.0684,1.0683,1.0695,1.0695,1.0695,0,0,0,0,0,1.0962,1.0947,1.0942,1.0935,1.0893,1.0865,1.0859,1.0842,1.0842,1.0833,1.0814,1.0805,1.075,1.0756,1.0749,1.074,1.0685,1.0684,1.0683,1.0696,1.0695,1.0695,0,0,0,0,0,0,1.0976,1.0943,1.0937,1.0913,1.0892,1.0862,1.0851,1.0842,1.082,1.082,1.0797,1.079,1.0766,1.075,1.0758,1.0718,1.0717,1.0714,1.0729,1.0728,1.0728,1.0732,1.0747,0,0,0,0,0,1.0977,1.0958,1.093,1.0911,1.0901,1.0878,1.0865,1.0853,1.0831,1.0821,1.0801,1.0778,1.0756,1.0741,1.0719,1.0694,1.0686,1.0684,1.0684,1.0684,1.0682,1.0667,1.0666,1.068,1.068,1.068,0,0,1.0977,1.0957,1.0946,1.0913,1.0896,1.0876,1.087,1.085,1.0835,1.0818,1.0792,1.0776,1.0749,1.0724,1.0711,1.071,1.0676,1.0683,1.0683,1.0681,1.0666,1.0665,1.0663,1.068,1.068,1.068,0,0,1.0967,1.095,1.0933,1.0916,1.089,1.0875,1.0871,1.0842,1.0831,1.0806,1.0793,1.0774,1.0736,1.0717,1.0703,1.0688,1.0678,1.0681,1.068,1.0666,1.0665,1.0663,1.0657,1.0656,1.0679,1.0679,1.0679,0,1.097,1.0941,1.0924,1.0905,1.0891,1.0876,1.0857,1.0841,1.0809,1.0799,1.0799,1.0751,1.0732,1.0702,1.0698,1.0687,1.0681,1.0684,1.0666,1.0665,1.0664,1.0658,1.0655,1.068,1.068,1.0679,1.0679,0,1.0946,1.0926,1.0915,1.0886,1.087,1.0851,1.0831,1.0817,1.0807,1.0792,1.0765,1.0742,1.0715,1.0707,1.0696,1.0675,1.0675,1.0671,1.0669,1.0663,1.0657,1.0655,1.068,1.068,1.068,1.068,0,0,1.0943,1.0906,1.0902,1.0888,1.0859,1.0843,1.0823,1.0798,1.0787,1.0765,1.0747,1.0716,1.0712,1.0696,1.0683,1.0671,1.066,1.0668,1.0667,1.0667,1.0634,1.0637,1.0635,1.0654,1.0653,1.0653,1.0636,0,1.0929,1.0894,1.0879,1.085,1.0831,1.0818,1.08,1.078,1.0766,1.0747,1.073,1.0708,1.0705,1.0695,1.0683,1.0664,1.0653,1.0665,1.0636,1.0635,1.0642,1.0632,1.0635,1.062,1.0634,1.0634,1.0633,0,1.0908,1.0888,1.0858,1.0832,1.0823,1.0808,1.0784,1.0766,1.0743,1.0733,1.0716,1.0704,1.0682,1.0683,1.0652,1.066,1.0648,1.0637,1.0636,1.0632,1.0633,1.0627,1.0615,1.0613,1.0629,1.063,1.063,0,1.0908,1.0873,1.0851,1.084,1.0809,1.0799,1.0785,1.0762,1.0748,1.0727,1.0717,1.0693,1.068,1.0661,1.0643,1.0645,1.0613,1.0613,1.0604,1.0604,1.0596,1.0597,1.0582,1.059,1.059,1.059,1.059,0,1.0894,1.0876,1.0851,1.0837,1.0816,1.0799,1.0778,1.0764,1.0744,1.0726,1.0713,1.0696,1.0674,1.0654,1.064,1.0616,1.061,1.0601,1.0597,1.0601,1.0602,1.0592,1.0592,1.0589,1.0589,1.059,1.059,0,1.0889,1.0872,1.0847,1.082,1.0813,1.0799,1.0775,1.0761,1.0746,1.0724,1.0718,1.0694,1.0671,1.0651,1.062,1.061,1.0585,1.0581,1.0593,1.0591,1.0583,1.0584,1.056,1.0556,1.0567,1.0567,1.0567,0,1.0881,1.0867,1.0839,1.0827,1.0814,1.0795,1.078,1.0763,1.0748,1.0721,1.071,1.0686,1.0666,1.0629,1.0608,1.0584,1.0579,1.0572,1.0575,1.058,1.0578,1.0578,1.0577,1.0572,1.0572,1.0572,1.0572,0,1.0868,1.086,1.0841,1.0819,1.0803,1.0784,1.0765,1.0756,1.0734,1.0719,1.0695,1.0679,1.0648,1.0624,1.0598,1.0583,1.0573,1.0571,1.0568,1.0571,1.0579,1.0574,1.0592,1.0571,1.0571,1.0571,1.0571,1.0571,1.086,1.0847,1.0826,1.0805,1.0789,1.0772,1.0757,1.0741,1.0722,1.0696,1.0686,1.0662,1.0639,1.0604,1.0589,1.0569,1.0568,1.0563,1.0561,1.056,1.056,1.0583,1.0564,1.0564,1.0564,1.0564,1.0564,0,1.0846,1.0832,1.0813,1.0787,1.0771,1.0765,1.0743,1.073,1.0709,1.0689,1.067,1.0643,1.0619,1.0598,1.0573,1.0562,1.0556,1.0556,1.0556,1.0552,1.0563,1.0568,1.056,1.056,1.056,1.056,1.056,1.056,1.0836,1.0814,1.0804,1.0773,1.0759,1.0736,1.0724,1.0708,1.0692,1.0663,1.0644,1.0631,1.061,1.0584,1.0562,1.0556,1.0548,1.0548,1.0541,1.0551,1.0552,1.0552,1.0557,1.0546,1.0546,1.0531,1.0531,1.0531]},{"header":{"parameterUnit":"m.s-1","parameterCategory":1,"la1":30.2991,"la2":30.254,"lo1":-89.0895,"lo2":-89.0444,"dy":0.0017,"dx":0.0017,"nx":28,"ny":28,"refTime":"2023-08-30T03:00:00:Z","depth":0,"parameterNumber":3,"parameterNumberName":"V-component_of_WINDS"},"data":[0,0,0,0,0,0,0,0,0,0,0,0,0,0,0,0,0,0,0,0,0,0,0,0,0,0,0,0,0,0,0,0,0,0,0,0,0,0,0,0,0,0,0,0,0,0,0,0,0,0,0,0,0,0,0,0,0,0,-4.3537,-4.3539,0,-4.3683,-4.3685,-4.3686,-4.3667,-4.3665,-4.3663,-4.366,-4.3807,-4.3812,-4.3819,0,0,0,0,0,0,0,0,0,0,0,0,0,-4.3241,-4.3246,-4.3537,-4.3539,-4.3541,-4.3683,-4.3685,-4.3687,-4.3668,-4.3665,-4.3662,-4.3659,-4.3805,-4.3812,-4.3819,0,0,0,0,0,0,0,0,0,0,0,0,0,-4.3376,-4.3248,-4.3537,-4.3549,-4.3551,-4.3682,-4.3685,-4.3687,-4.3669,-4.3665,-4.3661,-4.3658,-4.3802,-4.3811,-4.382,-4.3948,0,0,-4.3848,-4.3852,0,0,0,0,0,0,0,0,-4.3368,-4.3387,-4.3545,-4.3548,-4.3551,-4.3654,-4.3634,-4.3775,-4.3669,-4.3624,-4.366,-4.3656,-4.3758,-4.3771,-4.3806,-4.3955,-4.3961,-4.3849,-4.3854,-4.3858,-4.3861,0,0,0,0,0,0,0,-4.3359,-4.3381,-4.3595,-4.3547,-4.3551,-4.3546,-4.3561,-4.366,-4.3709,-4.3628,-4.3627,-4.3644,-4.3759,-4.3797,-4.3809,-4.3963,-4.3849,-4.3857,-4.3862,-4.3866,-4.4226,-4.423,0,0,0,0,0,0,-4.3347,-4.3373,-4.359,-4.3599,-4.3449,-4.3554,-4.3571,-4.3624,-4.3708,-4.3718,-4.3647,-4.3643,-4.3783,-4.3799,-4.3814,-4.3971,-4.3858,-4.3867,-4.3872,-4.4222,-4.4227,-4.4231,0,0,0,0,0,0,-4.3341,-4.3367,-4.3584,-4.3486,-4.3513,-4.3563,-4.3623,-4.3629,-4.3667,-4.3723,-4.3731,-4.3677,-4.3781,-4.3801,-4.3915,-4.3975,-4.3871,-4.3879,-4.4217,-4.4223,-4.4229,-4.4284,0,0,0,0,0,0,-4.3332,-4.3364,-4.3414,-4.3487,-4.3519,-4.3684,-4.3626,-4.3634,-4.3683,-4.3679,-4.3753,-4.3762,-4.378,-4.3902,-4.3925,-4.3986,-4.3886,-4.4212,-4.422,-4.4227,-4.4277,-4.4291,-4.4303,0,0,0,0,0,-4.3322,-4.3422,-4.3416,-4.3443,-4.3582,-4.3687,-4.3705,-4.3724,-4.3688,-4.3738,-4.3774,-4.376,-4.3965,-4.3914,-4.3939,-4.4004,-4.4208,-4.4218,-4.4226,-4.4271,-4.4288,-4.4303,0,0,0,0,0,0,-4.3353,-4.3432,-4.3426,-4.3554,-4.3614,-4.3684,-4.3747,-4.3742,-4.3813,-4.3806,-4.3826,-4.3843,-4.3958,-4.3992,-4.3934,-4.4133,-4.4082,-4.4096,-4.4107,-4.4124,-4.4136,-4.4126,-4.3894,0,0,0,0,0,-4.3375,-4.3456,-4.352,-4.3626,-4.3657,-4.3697,-4.3744,-4.3754,-4.3816,-4.3841,-4.3886,-4.3947,-4.4025,-4.4076,-4.4151,-4.4282,-4.4298,-4.4339,-4.4352,-4.4363,-4.4375,-4.4448,-4.4467,-4.4261,-4.4261,-4.4261,0,0,-4.3421,-4.3474,-4.3523,-4.3634,-4.3682,-4.3764,-4.3719,-4.3807,-4.3868,-4.3854,-4.3966,-4.4,-4.4069,-4.4193,-4.4249,-4.4225,-4.4436,-4.4374,-4.4382,-4.4389,-4.4459,-4.4479,-4.4496,-4.4267,-4.4266,-4.4265,0,0,-4.3547,-4.3595,-4.369,-4.3739,-4.3813,-4.3839,-4.3862,-4.3933,-4.3956,-4.4069,-4.4061,-4.4133,-4.4267,-4.4317,-4.436,-4.4507,-4.4497,-4.4531,-4.4599,-4.467,-4.4686,-4.4701,-4.4754,-4.4773,-4.4543,-4.4543,-4.4543,0,-4.3595,-4.3719,-4.3739,-4.3829,-4.3878,-4.3871,-4.3967,-4.4014,-4.4108,-4.4142,-4.4113,-4.4283,-4.4329,-4.4464,-4.45,-4.4535,-4.4562,-4.4522,-4.4682,-4.4697,-4.4711,-4.4762,-4.4782,-4.4547,-4.4546,-4.4546,-4.4546,0,-4.3774,-4.386,-4.3928,-4.4021,-4.4077,-4.417,-4.4203,-4.4258,-4.4263,-4.4293,-4.4407,-4.4463,-4.4549,-4.4582,-4.4587,-4.4719,-4.4702,-4.4678,-4.4626,-4.4734,-4.4782,-4.4802,-4.4552,-4.4551,-4.455,-4.4549,0,0,-4.3923,-4.4027,-4.4051,-4.4094,-4.4176,-4.4242,-4.4335,-4.4421,-4.4468,-4.4533,-4.4611,-4.4726,-4.4705,-4.4754,-4.4765,-4.4827,-4.4941,-4.4796,-4.4797,-4.4821,-4.5091,-4.5109,-4.5131,-4.4935,-4.4938,-4.4941,-4.5085,0,-4.4057,-4.4222,-4.4243,-4.4389,-4.447,-4.4465,-4.4546,-4.4604,-4.4634,-4.4707,-4.4739,-4.4821,-4.4786,-4.4816,-4.4877,-4.4914,-4.4995,-4.4904,-4.5007,-4.5011,-4.4991,-4.5156,-4.5175,-4.5308,-4.5104,-4.5107,-4.5109,0,-4.4236,-4.4308,-4.4462,-4.4535,-4.4569,-4.4641,-4.4723,-4.4792,-4.4858,-4.4876,-4.4932,-4.4935,-4.5031,-4.4976,-4.5107,-4.5045,-4.5088,-4.5113,-4.5119,-4.5129,-4.5067,-4.5172,-4.535,-4.5371,-4.5139,-4.5137,-4.5135,0,-4.433,-4.4466,-4.4576,-4.4612,-4.4699,-4.475,-4.4788,-4.4851,-4.4902,-4.4973,-4.5007,-4.5087,-4.5132,-4.5194,-4.5219,-4.5177,-4.535,-4.5297,-4.5368,-4.5367,-4.5404,-4.5402,-4.5594,-4.5432,-4.5431,-4.5431,-4.5431,0,-4.4478,-4.4573,-4.462,-4.4688,-4.4794,-4.4818,-4.4922,-4.4958,-4.5014,-4.5089,-4.5089,-4.5159,-4.5188,-4.5263,-4.5283,-4.539,-4.5409,-4.5426,-4.5431,-4.5427,-4.5425,-4.5456,-4.5447,-4.5436,-4.5435,-4.5434,-4.5433,0,-4.4601,-4.4636,-4.4757,-4.4829,-4.485,-4.4925,-4.4987,-4.5053,-4.5083,-4.5177,-4.5201,-4.5248,-4.5336,-4.5367,-4.5473,-4.5487,-4.5611,-4.5607,-4.5589,-4.559,-4.566,-4.5653,-4.5879,-4.591,-4.5727,-4.5728,-4.573,0,-4.4693,-4.4767,-4.4848,-4.4899,-4.4939,-4.5021,-4.5073,-4.51,-4.5154,-4.5237,-4.5293,-4.538,-4.5452,-4.5592,-4.5636,-4.5717,-4.5716,-4.5789,-4.5728,-4.5722,-4.5718,-4.5714,-4.5722,-4.5801,-4.5802,-4.5804,-4.5805,0,-4.4854,-4.4868,-4.4945,-4.5028,-4.5092,-4.5158,-4.5223,-4.5264,-4.53,-4.5361,-4.5452,-4.5508,-4.5617,-4.5705,-4.5789,-4.5827,-4.5823,-4.5824,-4.5845,-4.5842,-4.5829,-4.5838,-4.5621,-4.5819,-4.5818,-4.5817,-4.5816,-4.5815,-4.4965,-4.5031,-4.5099,-4.5184,-4.5236,-4.5297,-4.5363,-4.5402,-4.5478,-4.5571,-4.5581,-4.5679,-4.5744,-4.5857,-4.59,-4.5976,-4.5956,-4.5986,-4.5994,-4.6001,-4.6007,-4.5817,-4.5992,-4.5991,-4.5991,-4.5991,-4.599,0,-4.5126,-4.5171,-4.5249,-4.534,-4.5408,-4.5399,-4.547,-4.5527,-4.5614,-4.5676,-4.5747,-4.5852,-4.5937,-4.5988,-4.6073,-4.6125,-4.6125,-4.6146,-4.6143,-4.6152,-4.6019,-4.5993,-4.6145,-4.6145,-4.6145,-4.6145,-4.6145,-4.6145,-4.5218,-4.5329,-4.5352,-4.5488,-4.5531,-4.5628,-4.567,-4.5726,-4.5776,-4.5894,-4.5965,-4.5998,-4.6056,-4.6146,-4.6224,-4.6236,-4.6268,-4.6292,-4.6303,-4.6177,-4.6161,-4.6146,-4.6122,-4.6298,-4.6298,-4.6429,-4.643,-4.6431]}]]